Terminal Aerodrome Forecast
Issued by NWS Denver/Boulder, CO

Home | Current Version | Previous Version | Text Only | Print | Product List | Glossary On
Versions: 1 2 3 4 5 6 7 8 9 10 11 12 13 14 15 16 17 18 19 20 21 22 23 24 25 26 27 28 29 30 31 32 33 34 35 36 37 38 39 40 41 42 43 44 45 46 47 48 49 50
000
FTUS45 KBOU 192334
TAFDEN
TAF
KDEN 192334Z 2000/2106 07008KT P6SM FEW120 SCT220
     FM200200 19007KT P6SM FEW220
     FM200600 22008KT P6SM FEW220
     FM201600 VRB06KT P6SM FEW220
     FM202200 14008KT P6SM FEW120 SCT220
     FM210200 20007KT P6SM SCT220=

USA.gov is the U.S. government's official web portal to all federal, state and local government web resources and services.